{"data":{"norad_id":42846,"epoch":"2026-05-25T00:13:43.735872Z","epoch_age_seconds":68046,"freshness":"FRESH","line1":"1 42846U 17042X   26145.00953398  .00003206  00000+0  22294-3 0  9995","line2":"2 42846  97.4039 307.2667 0013021 185.5996 174.5088 15.06116158483573","mean_motion":15.06116158,"eccentricity":0.0013021,"inclination_deg":97.4039,"raan_deg":307.2667,"arg_perigee_deg":185.5996,"mean_anomaly_deg":174.5088,"bstar":0.00022294,"rev_number":48357,"period_min":95.610155455221,"perigee_km":539.06300013028,"apogee_km":557.10025868498,"semimajor_km":6926.2186294076,"source":"CELESTRAK","updated_at":"2026-05-25T13:38:25.529406Z"}}